Weather History for KNID - October, 2012

Change the Weather History Date:

Sunday, October 7, 2012

  Actual Average (WUND) Record (WUND)
Temperature  
Mean Temperature 68 °F -  
Max Temperature 87 °F - - (-1)
Min Temperature 50 °F - - (-1)
Cooling Degree Days 4    
Growing Degree Days 18 (Base 50)    
Moisture  
Dew Point 35 °F    
Average Humidity 31    
Maximum Humidity 50    
Minimum Humidity 14    
Precipitation  
Precipitation 0.00 in - - ()
Sea Level Pressure  
Sea Level Pressure 29.86 in    
Wind  
Wind Speed 4 mph (South)    
Max Wind Speed 12 mph    
Max Gust Speed 16 mph    
Visibility 10 miles    
Events      
Averages and records for this station are not official NWS values.
T = Trace of Precipitation, MM = Missing Value Source: NWS Daily Summary

Daily Weather History Graph

Daily Weather History Graph

Search for Another Location

Airport or City:

Trip Planner

Search our weather history database for the weather conditions in past years. The results will help you decide how hot, cold, wet, or windy it might be!

Date:

Astronomy

Oct. 07, 2012 Rise Set
Actual Time 6:51 AM PDT 6:25 PM PDT
Civil Twilight 6:25 AM PDT 6:50 PM PDT
Nautical Twilight 5:55 AM PDT 7:20 PM PDT
Astronomical Twilight 5:26 AM PDT 7:49 PM PDT
Moon 11:48 PM PDT 1:23 PM PDT
Length of Visible Light 12h 25m
Length of Day
11h 34m
Waning Gibbous, 55% of the Moon is Illuminated
Oct 7
Waning Gibbous
Oct 8
Last Quarter
Oct 15
New
Oct 21
First Quarter
Oct 29
Full

Hourly Weather History & Observations

Time (PDT) Temp. Dew Point Humidity Pressure Visibility Wind Dir Wind Speed Gust Speed Precip Events Conditions
12:56 AM 66.9 °F 36.0 °F 32% 29.81 in 10.0 mi SSW 9.2 mph - N/A   Clear
1:56 AM 60.1 °F 34.0 °F 38% 29.83 in 10.0 mi Calm Calm - N/A   Clear
2:56 AM 57.9 °F 33.1 °F 39% 29.83 in 10.0 mi Calm Calm - N/A   Clear
3:56 AM 54.0 °F 30.9 °F 41% 29.84 in 10.0 mi SSE 4.6 mph - N/A   Clear
4:56 AM 52.0 °F 32.0 °F 47% 29.86 in 10.0 mi Calm Calm - N/A   Clear
5:56 AM 53.1 °F 32.0 °F 45% 29.87 in 10.0 mi Calm Calm - N/A   Clear
6:56 AM 50.0 °F 32.0 °F 50% 29.90 in 10.0 mi SSW 4.6 mph - N/A   Clear
7:56 AM 57.0 °F 34.0 °F 42% 29.92 in 10.0 mi Calm Calm - N/A   Clear
8:56 AM 64.9 °F 35.1 °F 33% 29.93 in 10.0 mi Calm Calm - N/A   Clear
9:56 AM 69.1 °F 35.1 °F 29% 29.93 in 10.0 mi Calm Calm - N/A   Clear
10:56 AM 73.9 °F 36.0 °F 25% 29.92 in 10.0 mi Variable 3.5 mph - N/A   Clear
11:56 AM 79.0 °F 36.0 °F 21% 29.90 in 10.0 mi Calm Calm - N/A   Clear
12:56 PM 82.9 °F 33.1 °F 17% 29.87 in 10.0 mi Variable 5.8 mph - N/A   Clear
1:56 PM 84.9 °F 34.0 °F 16% 29.85 in 10.0 mi ESE 8.1 mph 16.1 mph N/A   Clear
3:56 PM 87.1 °F 32.0 °F 14% 29.82 in 10.0 mi Calm Calm - N/A   Clear
4:56 PM 86.0 °F 32.0 °F 14% 29.81 in 10.0 mi Calm Calm - N/A   Clear
5:56 PM 84.9 °F 32.0 °F 15% 29.81 in 10.0 mi NW 3.5 mph - N/A   Unknown
6:56 PM 78.1 °F 30.0 °F 17% 29.83 in 10.0 mi SSW 6.9 mph - N/A   Clear
7:56 PM 75.9 °F 43.0 °F 31% 29.84 in 10.0 mi SSW 11.5 mph - N/A   Clear
8:56 PM 73.0 °F 42.1 °F 33% 29.84 in 10.0 mi South 10.4 mph - N/A   Clear
9:56 PM 72.0 °F 39.9 °F 31% 29.85 in 10.0 mi South 9.2 mph - N/A   Clear
10:56 PM 69.1 °F 41.0 °F 36% 29.86 in 10.0 mi South 8.1 mph - N/A   Clear
11:56 PM 69.1 °F 42.1 °F 38% 29.85 in 10.0 mi South 10.4 mph - N/A   Clear